User: anonymous
Location: Unspecified
(42.1900°N, 71.3291°W)
Time: 00:58:44
(UTC-04:00)
Language:

Resurs 1-4 Rocket - Orbit

View from above orbital plane
View from above orbital plane
View from above satellite
View from above satellite

Ground track
Ground track

The orbit data is extracted from the following two-line orbital elements,

1 25400U 98043G   14210.46927206 -.00000008  00000-0  14197-4 0  7127
2 25400 098.3372 185.3542 0010851 139.8389 220.3595 14.25251380834966
Epoch (UTC): 29 July 2014 11:15:45
Eccentricity: 0.0010851
inclination: 98.3372°
perigee height: 800 km
apogee height: 815 km
right ascension of ascending node: 185.3542°
argument of perigee: 139.8389°
revolutions per day: 14.25251380
mean anomaly at epoch: 220.3595°
orbit number at epoch: 83496

The dashed part of the orbit path shows where the satellite is in the earth's shadow,  

DLR